Preview of NWS' New Version of Forecast
This preview is not operational and should not be used for support decisions.

Regional Weather Roundup (RWR)

Issued by National Weather Service (NWS)

                            
000
ASUS43 KLSX 161107
RWRMO 

WEATHER SUMMARY FOR MISSOURI
NATIONAL WEATHER SERVICE SPRINGFIELD MO
600 AM CDT SUN JUN 16 2019

NOTE: "FAIR" INDICATES FEW OR NO CLOUDS BELOW 12,000 FEET WITH NO
       SIGNIFICANT WEATHER AND/OR OBSTRUCTIONS TO VISIBILITY.
       CURRENT SKY AND/OR WEATHER CONDITIONS ARE NOT AVAILABLE FOR
       CHILLICOTHE AND FARMINGTON.

MOZ001>031-035>038-043-044-053-054-161200-
...NORTHERN AND WESTERN MISSOURI...
  
CITY           SKY/WX    TMP DP  RH WIND       PRES   REMARKS
KANSAS CTY INT CLOUDY    69  67  93 SW8       29.83R                  
KANSAS C DTWN  CLEAR     71  67  87 SW8       29.81S                  
LEE'S SUMMIT   CLEAR     70  68  93 SW7       29.82R                  
ST JOSEPH      CLEAR     67  64  90 S3        29.82R                  
CHILLICOTHE      N/A     69  67  93 CALM      29.80F                  
KIRKSVILLE     CLEAR     67  66  97 MISG      29.80R                  
     
$$
MOZ066>068-077>081-088>096-101>105-161200-
...SOUTHWEST MISSOURI...
  
CITY           SKY/WX    TMP DP  RH WIND       PRES   REMARKS
SPRINGFIELD    RAIN      65  63  93 SW8       29.96R                  
JOPLIN         TSTM      65  65 100 S9        29.97R FOG              
BRANSON        LGT RAIN  66  63  88 NW14G22   29.93R                  
               
$$
MOZ032>034-039>042-045>050-055>058-069>072-161200-
...CENTRAL MISSOURI...  
  
CITY           SKY/WX    TMP DP  RH WIND       PRES   REMARKS
COLUMBIA       CLEAR     73  69  87 NW5       29.78F                  
ROLLA          LGT RAIN  67  62  84 S9        29.85R                  
SEDALIA        LGT RAIN  71  70  96 SW18G31   29.83R                  
WHITEMAN AFB   MOCLDY    72  71  97 SW18      29.78                   
WARRENSBURG    PTCLDY    70  66  88 S10       29.82R                  
OSAGE BEACH    LGT RAIN  71  71 100 SW15      29.89R                  
               
$$
MOZ051-052-059>065-161200-
...EAST CENTRAL MISSOURI...
  
CITY           SKY/WX    TMP DP  RH WIND       PRES   REMARKS
ST LOUIS INTL  CLOUDY    74  69  85 SW9       29.79S                  
SPIRIT OF STL  CLEAR     73  70  90 S5        29.78R                  
ST CHARLES       N/A    N/A N/A N/A MISG      29.78R                  
                   
$$
MOZ072>076-082>087-097>100-106>115-161200-
...SOUTH CENTRAL AND SOUTHEAST MISSOURI...
  
CITY           SKY/WX    TMP DP  RH WIND       PRES   REMARKS
CAPE GIRARDEAU FAIR      75  68  78 S10       29.84R                  
FARMINGTON     CLEAR     72  70  93 S7        29.85R                  
POPLAR BLUFF   FAIR      74  71  91 S10       29.84R                  
WEST PLAINS    CLEAR     73  69  87 S6        29.87R                  
                                       
$$